TimeEDT,TemperatureF,Dew PointF,Humidity,Sea Level PressureIn,VisibilityMPH,Wind Direction,Wind SpeedMPH,Gust SpeedMPH,PrecipitationIn,Events,Conditions,WindDirDegrees,DateUTC
12:15 AM,66.2,64.4,94,29.91,1.8,West,3.5,-,0.04,Rain,Rain,270,2013-08-27 04:15:00
12:22 AM,66.2,64.4,94,29.91,1.5,Calm,Calm,-,0.06,Rain,Rain,0,2013-08-27 04:22:00
12:27 AM,66.2,66.2,100,29.91,2.0,Calm,Calm,-,0.07,Rain,Light Rain,0,2013-08-27 04:27:00
12:34 AM,66.2,64.4,94,29.91,2.5,Calm,Calm,-,0.08,Rain,Light Rain,0,2013-08-27 04:34:00
12:44 AM,66.2,64.4,94,29.91,2.5,Calm,Calm,-,0.09,Rain,Light Rain,0,2013-08-27 04:44:00
12:47 AM,66.2,64.4,94,29.91,3.0,Calm,Calm,-,0.09,Rain,Light Rain,0,2013-08-27 04:47:00
5:41 AM,66.2,64.4,94,29.88,4.0,Calm,Calm,-,0.00,,Overcast,0,2013-08-27 09:41:00
5:54 AM,66.0,64.9,96,29.81,4.0,Calm,Calm,-,0.00,,Overcast,0,2013-08-27 09:54:00
6:13 AM,64.4,64.4,100,29.88,1.5,Calm,Calm,-,N/A,,Scattered Clouds,0,2013-08-27 10:13:00
6:21 AM,64.4,64.4,100,29.88,1.0,NNE,3.5,-,N/A,,Mostly Cloudy,30,2013-08-27 10:21:00
6:27 AM,64.4,64.4,100,29.89,3.0,NE,3.5,-,N/A,,Scattered Clouds,40,2013-08-27 10:27:00
6:54 AM,64.9,64.0,97,29.82,2.5,Calm,Calm,-,N/A,,Partly Cloudy,0,2013-08-27 10:54:00
7:10 AM,66.2,64.4,94,29.89,4.0,Calm,Calm,-,N/A,,Clear,0,2013-08-27 11:10:00
7:54 AM,68.0,64.9,90,29.83,6.0,Calm,Calm,-,N/A,,Clear,0,2013-08-27 11:54:00
8:08 AM,69.8,64.4,83,29.91,6.0,NW,4.6,-,N/A,,Scattered Clouds,320,2013-08-27 12:08:00
8:39 AM,68.0,64.4,88,29.91,8.0,Calm,Calm,-,N/A,,Mostly Cloudy,0,2013-08-27 12:39:00
8:54 AM,70.0,66.0,87,29.85,7.0,Calm,Calm,-,N/A,,Overcast,0,2013-08-27 12:54:00
9:32 AM,69.8,64.4,83,29.92,9.0,WNW,5.8,-,N/A,,Overcast,300,2013-08-27 13:32:00
9:46 AM,69.8,64.4,83,29.92,9.0,WNW,6.9,-,N/A,,Overcast,300,2013-08-27 13:46:00
9:54 AM,69.1,64.9,87,29.86,9.0,WNW,9.2,-,N/A,,Overcast,300,2013-08-27 13:54:00
10:54 AM,71.1,64.9,81,29.86,10.0,WNW,9.2,-,N/A,,Overcast,290,2013-08-27 14:54:00
11:54 AM,73.9,66.0,76,29.86,10.0,Calm,Calm,-,N/A,,Mostly Cloudy,0,2013-08-27 15:54:00
12:04 PM,73.4,66.2,78,29.93,10.0,Calm,Calm,-,N/A,,Partly Cloudy,0,2013-08-27 16:04:00
12:24 PM,75.2,66.2,73,29.93,10.0,North,3.5,-,N/A,,Mostly Cloudy,350,2013-08-27 16:24:00
12:54 PM,75.0,66.9,76,29.86,10.0,WNW,9.2,-,N/A,,Mostly Cloudy,290,2013-08-27 16:54:00
1:04 PM,75.2,66.2,73,29.93,10.0,WNW,10.4,-,N/A,,Overcast,300,2013-08-27 17:04:00
1:54 PM,78.1,66.0,66,29.85,10.0,NW,9.2,-,N/A,,Scattered Clouds,320,2013-08-27 17:54:00
2:54 PM,79.0,66.0,64,29.82,10.0,WNW,9.2,-,N/A,,Mostly Cloudy,290,2013-08-27 18:54:00
3:54 PM,78.1,66.0,66,29.81,10.0,WNW,6.9,-,N/A,,Scattered Clouds,290,2013-08-27 19:54:00
4:54 PM,79.0,66.9,66,29.81,10.0,NW,9.2,-,N/A,,Clear,310,2013-08-27 20:54:00
5:54 PM,77.0,66.0,69,29.83,10.0,WNW,9.2,-,N/A,,Partly Cloudy,290,2013-08-27 21:54:00
6:54 PM,73.9,64.9,73,29.83,10.0,WNW,3.5,-,N/A,,Partly Cloudy,300,2013-08-27 22:54:00
7:54 PM,72.0,64.0,76,29.84,10.0,WNW,3.5,-,N/A,,Clear,300,2013-08-27 23:54:00
8:54 PM,68.0,64.0,87,29.85,10.0,Calm,Calm,-,N/A,,Clear,0,2013-08-28 00:54:00
9:54 PM,66.9,64.9,93,29.86,8.0,Calm,Calm,-,N/A,,Clear,0,2013-08-28 01:54:00
10:54 PM,64.9,63.0,93,29.87,6.0,Calm,Calm,-,N/A,,Clear,0,2013-08-28 02:54:00
11:54 PM,64.9,63.0,93,29.87,5.0,Calm,Calm,-,N/A,,Clear,0,2013-08-28 03:54:00